ROMMA est une association bénévole à but non lucratif. Votre soutien est indispensable : ADHERER à ROMMA ou FAIRE un DON

Chambon - (38, Isère)

Oisans (2460 m)   Longitude: 06° 10' 42" E   Latitude: 45° 01' 32" N Station partenaire n°803
 

Détail journalier du     <<     >>

Température Humidité Vent Dir Rafale Dir. rafale Neige 1 Neige 2
Heure (°C) (%) (km/h) (km/h) (cm) (cm)
01:00
02:00 3.09815SO28SO02
03:00 3.48820SSO34SSO03
04:00 2.89413SSO31SSO03
05:00 2.9929SSO24SSO04
06:00 2.6978SSO15SSO04
07:00 2.8994SSO18OSO03
08:00 3.1975SSE16SSO03
09:00 3.5904NNE15NNE03
10:00 4.9845NNE15NNE03
11:00 5.7834NNE14OSO02
12:00 5.8878OSO17O02
13:00 6.28310OSO17OSO02
14:00 6.18812OSO20OSO02
15:00 5.49115OSO22OSO02
16:00 6.08217SO26SO02
17:00 5.18917SO25SO02
18:00 4.09116SO26SO02
19:00 3.79411SO22SO01
20:00 3.5927SSO11SSO02
21:00 3.5894SSE9S02
22:00 3.1942NNE7NNE02
23:00 3.1914NNE10S03
minuit 3.9774SSE9SSE03

Graphique du 29-10-2019

 

Serveur OMMA